CTV390 WIBB-WIII

Flight info

Callsign CTV390
Flight time 1h 33m
Altitude 37000
Route WIBB/36 N0453F370 ISRO1H ISROR T5 BUNIK BUNI2F WIII/07R
Aircraft A20N/M-SDE2E3FGHIRWXY/LB1

Departure

Time 2026-04-25 03:08
Airport Sultan Syarif Kasim II International Airport / Roesmin Nurjadin AFB (WIBB)

Arrival

Time 2026-04-25 04:42
Airport Soekarno-Hatta International Airport (WIII)
Time Latitude Longitude Altitude Speed Heading
2026-04-25 02:44 0.46480 101.44683 125 ft 0 kts 91°
2026-04-25 03:00 0.46481 101.44665 125 ft 4 kts 93°
2026-04-25 03:00 0.46483 101.44638 122 ft 4 kts 98°
2026-04-25 03:01 0.46489 101.44611 127 ft 4 kts 113°
2026-04-25 03:01 0.46502 101.44593 127 ft 3 kts 174°
2026-04-25 03:01 0.46506 101.44592 125 ft 0 kts 182°
2026-04-25 03:03 0.46494 101.44592 123 ft 3 kts 180°
2026-04-25 03:04 0.46456 101.44592 127 ft 7 kts 181°
2026-04-25 03:04 0.46396 101.44586 124 ft 8 kts 207°
2026-04-25 03:04 0.46380 101.44530 126 ft 10 kts 266°
2026-04-25 03:05 0.46278 101.44461 123 ft 13 kts 181°
2026-04-25 03:05 0.46170 101.44456 125 ft 19 kts 182°
2026-04-25 03:05 0.46006 101.44451 126 ft 28 kts 181°
2026-04-25 03:05 0.45787 101.44443 122 ft 36 kts 182°
2026-04-25 03:06 0.45518 101.44435 123 ft 41 kts 182°
2026-04-25 03:06 0.45230 101.44427 126 ft 41 kts 181°
2026-04-25 03:06 0.44956 101.44419 125 ft 31 kts 182°
2026-04-25 03:06 0.44809 101.44440 129 ft 13 kts 155°
2026-04-25 03:07 0.44763 101.44430 129 ft 4 kts 260°
2026-04-25 03:07 0.44793 101.44414 126 ft 5 kts
2026-04-25 03:07 0.44803 101.44414 125 ft 4 kts
2026-04-25 03:07 0.44973 101.44419 129 ft 64 kts
2026-04-25 03:08 0.45699 101.44441 131 ft 141 kts
2026-04-25 03:08 0.46835 101.44482 463 ft 170 kts
2026-04-25 03:08 0.48034 101.44548 1062 ft 181 kts
2026-04-25 03:08 0.49356 101.44635 1539 ft 200 kts 12°
2026-04-25 03:09 0.50707 101.45152 1998 ft 218 kts 33°
2026-04-25 03:09 0.51808 101.46266 2447 ft 237 kts 60°
2026-04-25 03:09 0.52355 101.47882 2905 ft 258 kts 78°
2026-04-25 03:09 0.52727 101.49674 3682 ft 266 kts 78°
2026-04-25 03:10 0.53106 101.51497 4599 ft 269 kts 78°
2026-04-25 03:10 0.53492 101.53333 5538 ft 272 kts 78°
2026-04-25 03:10 0.53886 101.55175 6185 ft 280 kts 78°
2026-04-25 03:10 0.54293 101.57063 6293 ft 276 kts 78°
2026-04-25 03:11 0.54701 101.58944 6404 ft 277 kts 78°
2026-04-25 03:11 0.55107 101.60830 6513 ft 278 kts 80°
2026-04-25 03:11 0.55061 101.62746 6620 ft 278 kts 105°
2026-04-25 03:11 0.54161 101.64447 6732 ft 280 kts 132°
2026-04-25 03:12 0.52581 101.65569 6844 ft 283 kts 158°
2026-04-25 03:12 0.50670 101.66053 6961 ft 284 kts 167°
2026-04-25 03:12 0.48732 101.66456 7008 ft 284 kts 167°
2026-04-25 03:12 0.46792 101.66857 7009 ft 284 kts 167°
2026-04-25 03:13 0.44854 101.67263 7006 ft 284 kts 167°
2026-04-25 03:13 0.42920 101.67676 6997 ft 284 kts 167°
2026-04-25 03:13 0.40981 101.68090 6999 ft 284 kts 167°
2026-04-25 03:13 0.39041 101.68504 7078 ft 286 kts 167°
2026-04-25 03:14 0.37081 101.68922 7626 ft 289 kts 167°
2026-04-25 03:14 0.35122 101.69340 8530 ft 289 kts 167°
2026-04-25 03:14 0.33168 101.69759 9284 ft 293 kts 167°
2026-04-25 03:14 0.31173 101.70221 10064 ft 295 kts 162°
2026-04-25 03:15 0.29225 101.70972 10530 ft 310 kts 153°
2026-04-25 03:15 0.27231 101.71971 10757 ft 331 kts 152°
2026-04-25 03:15 0.25122 101.73027 11172 ft 344 kts 153°
2026-04-25 03:15 0.22973 101.74095 11938 ft 345 kts 153°
2026-04-25 03:16 0.20814 101.75163 12700 ft 347 kts 153°
2026-04-25 03:16 0.18631 101.76241 13335 ft 353 kts 152°
2026-04-25 03:16 0.16412 101.77337 14000 ft 357 kts 152°
2026-04-25 03:16 0.14179 101.78456 14645 ft 361 kts 149°
2026-04-25 03:17 0.12071 101.79831 15252 ft 363 kts 140°
2026-04-25 03:17 0.10189 101.81527 15865 ft 366 kts 132°
2026-04-25 03:17 0.08513 101.83452 16442 ft 369 kts 129°
2026-04-25 03:17 0.06831 101.85408 17008 ft 373 kts 129°
2026-04-25 03:18 0.05127 101.87378 17572 ft 376 kts 129°
2026-04-25 03:18 0.03429 101.89334 18109 ft 379 kts 129°
2026-04-25 03:18 0.01694 101.91334 18636 ft 383 kts 129°
2026-04-25 03:18 -0.00059 101.93356 19143 ft 386 kts 129°
2026-04-25 03:19 -0.01826 101.95394 19634 ft 390 kts 129°
2026-04-25 03:19 -0.03612 101.97454 20098 ft 394 kts 129°
2026-04-25 03:19 -0.05411 101.99530 20592 ft 397 kts 129°
2026-04-25 03:19 -0.07226 102.01627 21063 ft 400 kts 129°
2026-04-25 03:20 -0.09057 102.03740 21504 ft 404 kts 129°
2026-04-25 03:20 -0.10903 102.05870 21938 ft 407 kts 129°
2026-04-25 03:20 -0.12765 102.08017 22362 ft 410 kts 129°
2026-04-25 03:20 -0.14637 102.10177 22736 ft 414 kts 129°
2026-04-25 03:21 -0.16530 102.12362 23152 ft 416 kts 129°
2026-04-25 03:21 -0.18431 102.14556 23550 ft 419 kts 129°
2026-04-25 03:21 -0.20349 102.16772 23924 ft 422 kts 129°
2026-04-25 03:21 -0.22279 102.18997 24289 ft 425 kts 129°
2026-04-25 03:22 -0.24220 102.21236 24688 ft 427 kts 129°
2026-04-25 03:22 -0.26171 102.23480 25065 ft 429 kts 129°
2026-04-25 03:22 -0.28133 102.25737 25432 ft 431 kts 129°
2026-04-25 03:22 -0.30101 102.28003 25789 ft 432 kts 129°
2026-04-25 03:23 -0.32005 102.30330 26127 ft 433 kts 124°
2026-04-25 03:23 -0.33644 102.32863 26433 ft 435 kts 118°
2026-04-25 03:23 -0.35071 102.35538 26757 ft 436 kts 117°
2026-04-25 03:23 -0.36480 102.38183 27068 ft 438 kts 117°
2026-04-25 03:24 -0.37918 102.40871 27372 ft 440 kts 117°
2026-04-25 03:24 -0.39367 102.43573 27652 ft 442 kts 117°
2026-04-25 03:24 -0.40822 102.46285 27919 ft 444 kts 117°
2026-04-25 03:24 -0.42283 102.49010 28211 ft 446 kts 117°
2026-04-25 03:25 -0.43749 102.51744 28475 ft 447 kts 117°
2026-04-25 03:25 -0.45220 102.54488 28746 ft 449 kts 118°
2026-04-25 03:25 -0.46701 102.57241 29020 ft 450 kts 118°
2026-04-25 03:25 -0.48188 102.60001 29304 ft 451 kts 118°
2026-04-25 03:26 -0.49678 102.62767 29542 ft 453 kts 118°
2026-04-25 03:26 -0.51175 102.65545 29784 ft 455 kts 118°
2026-04-25 03:26 -0.52676 102.68331 30034 ft 457 kts 118°
2026-04-25 03:26 -0.54184 102.71133 30279 ft 458 kts 118°
2026-04-25 03:27 -0.55697 102.73945 30516 ft 460 kts 118°
2026-04-25 03:27 -0.57216 102.76768 30727 ft 463 kts 118°
2026-04-25 03:27 -0.58742 102.79602 30990 ft 464 kts 118°
2026-04-25 03:27 -0.60269 102.82440 31309 ft 463 kts 118°
2026-04-25 03:28 -0.61792 102.85269 31684 ft 462 kts 118°
2026-04-25 03:28 -0.63310 102.88091 32027 ft 461 kts 118°
2026-04-25 03:28 -0.64824 102.90904 32337 ft 460 kts 118°
2026-04-25 03:28 -0.66335 102.93712 32692 ft 458 kts 118°
2026-04-25 03:29 -0.67843 102.96513 32996 ft 457 kts 118°
2026-04-25 03:29 -0.69348 102.99306 33284 ft 456 kts 118°
2026-04-25 03:29 -0.70849 103.02095 33568 ft 456 kts 118°
2026-04-25 03:29 -0.71842 103.03941 33784 ft 454 kts 117°
2026-04-25 03:30 -0.73821 103.07620 34144 ft 453 kts 117°
2026-04-25 03:30 -0.75312 103.10392 34438 ft 452 kts 117°
2026-04-25 03:30 -0.76800 103.13155 34674 ft 451 kts 117°
2026-04-25 03:30 -0.78286 103.15916 34894 ft 451 kts 117°
2026-04-25 03:31 -0.79768 103.18670 35141 ft 450 kts 117°
2026-04-25 03:31 -0.80769 103.20530 35306 ft 449 kts 117°
2026-04-25 03:31 -0.82231 103.23246 35507 ft 449 kts 117°
2026-04-25 03:31 -0.83713 103.25999 35727 ft 449 kts 117°
2026-04-25 03:32 -0.85191 103.28743 35971 ft 448 kts 117°
2026-04-25 03:32 -0.86663 103.31480 36182 ft 447 kts 117°
2026-04-25 03:32 -0.88280 103.34139 36395 ft 448 kts 123°
2026-04-25 03:32 -0.90181 103.36606 36605 ft 449 kts 129°
2026-04-25 03:33 -0.92345 103.38859 36819 ft 449 kts 135°
2026-04-25 03:33 -0.94725 103.40877 36893 ft 447 kts 139°
2026-04-25 03:33 -0.99521 103.44739 36916 ft 440 kts 139°
2026-04-25 03:34 -1.04291 103.48605 36910 ft 442 kts 139°
2026-04-25 03:34 -1.09070 103.52476 36911 ft 442 kts 139°
2026-04-25 03:35 -1.13851 103.56346 36923 ft 442 kts 139°
2026-04-25 03:35 -1.18609 103.60200 36918 ft 443 kts 139°
2026-04-25 03:36 -1.23398 103.64078 36922 ft 443 kts 139°
2026-04-25 03:36 -1.28189 103.67958 36914 ft 443 kts 139°
2026-04-25 03:37 -1.32984 103.71840 36917 ft 443 kts 138°
2026-04-25 03:37 -1.37779 103.75724 36911 ft 444 kts 138°
2026-04-25 03:38 -1.42578 103.79611 36904 ft 444 kts 138°
2026-04-25 03:38 -1.47379 103.83500 36919 ft 444 kts 138°
2026-04-25 03:39 -1.52154 103.87366 36921 ft 444 kts 138°
2026-04-25 03:39 -1.56959 103.91259 36920 ft 444 kts 138°
2026-04-25 03:40 -1.61765 103.95152 36917 ft 445 kts 138°
2026-04-25 03:40 -1.66569 103.99042 36918 ft 445 kts 138°
2026-04-25 03:41 -1.71388 104.02947 36906 ft 445 kts 138°
2026-04-25 03:41 -1.76207 104.06852 36920 ft 446 kts 138°
2026-04-25 03:42 -1.80989 104.10725 36909 ft 446 kts 138°
2026-04-25 03:42 -1.85809 104.14633 36922 ft 446 kts 138°
2026-04-25 03:43 -1.90625 104.18536 36925 ft 446 kts 138°
2026-04-25 03:43 -1.95441 104.22442 36913 ft 446 kts 138°
2026-04-25 03:44 -2.00265 104.26351 36925 ft 446 kts 138°
2026-04-25 03:44 -2.05087 104.30257 36927 ft 446 kts 138°
2026-04-25 03:45 -2.09906 104.34163 36926 ft 446 kts 138°
2026-04-25 03:45 -2.14726 104.38071 36923 ft 446 kts 138°
2026-04-25 03:46 -2.19551 104.41981 36924 ft 446 kts 138°
2026-04-25 03:46 -2.24369 104.45886 36915 ft 446 kts 138°
2026-04-25 03:47 -2.29193 104.49796 36920 ft 446 kts 138°
2026-04-25 03:47 -2.34017 104.53706 36923 ft 446 kts 138°
2026-04-25 03:48 -2.38841 104.57619 36919 ft 446 kts 138°
2026-04-25 03:48 -2.43663 104.61530 36908 ft 446 kts 139°
2026-04-25 03:49 -2.48480 104.65437 36902 ft 446 kts 139°
2026-04-25 03:49 -2.53274 104.69325 36904 ft 446 kts 139°
2026-04-25 03:50 -2.58097 104.73237 36914 ft 447 kts 139°
2026-04-25 03:50 -2.62925 104.77153 36912 ft 447 kts 139°
2026-04-25 03:51 -2.67761 104.81077 36913 ft 447 kts 139°
2026-04-25 03:51 -2.72597 104.85001 36916 ft 448 kts 139°
2026-04-25 03:52 -2.77435 104.88926 36911 ft 448 kts 139°
2026-04-25 03:52 -2.82256 104.92838 36919 ft 448 kts 139°
2026-04-25 03:53 -2.87101 104.96770 36916 ft 449 kts 139°
2026-04-25 03:53 -2.91952 105.00709 36923 ft 449 kts 139°
2026-04-25 03:54 -2.96803 105.04647 36923 ft 449 kts 139°
2026-04-25 03:54 -3.01658 105.08590 36930 ft 450 kts 139°
2026-04-25 03:55 -3.06522 105.12538 36930 ft 450 kts 139°
2026-04-25 03:55 -3.11382 105.16485 36914 ft 450 kts 139°
2026-04-25 03:56 -3.16248 105.20436 36908 ft 450 kts 139°
2026-04-25 03:56 -3.21113 105.24389 36927 ft 450 kts 139°
2026-04-25 03:57 -3.25976 105.28346 36917 ft 451 kts 139°
2026-04-25 03:57 -3.30775 105.32334 36911 ft 450 kts 139°
2026-04-25 03:58 -3.35575 105.36358 36922 ft 450 kts 139°
2026-04-25 03:58 -3.40388 105.40375 36922 ft 450 kts 139°
2026-04-25 03:59 -3.45201 105.44397 36922 ft 450 kts 139°
2026-04-25 03:59 -3.50017 105.48419 36911 ft 451 kts 139°
2026-04-25 04:00 -3.54812 105.52425 36919 ft 452 kts 139°
2026-04-25 04:00 -3.59654 105.56471 36921 ft 454 kts 139°
2026-04-25 04:01 -3.64482 105.60502 36916 ft 451 kts 139°
2026-04-25 04:01 -3.69309 105.64534 36907 ft 452 kts 139°
2026-04-25 04:02 -3.74143 105.68571 36915 ft 452 kts 139°
2026-04-25 04:02 -3.78978 105.72610 36915 ft 453 kts 139°
2026-04-25 04:03 -3.83817 105.76652 36918 ft 452 kts 139°
2026-04-25 04:03 -3.88657 105.80698 36908 ft 453 kts 139°
2026-04-25 04:04 -3.93486 105.84736 36917 ft 453 kts 139°
2026-04-25 04:04 -3.98330 105.88785 36908 ft 453 kts 139°
2026-04-25 04:05 -4.03171 105.92831 36908 ft 453 kts 139°
2026-04-25 04:05 -4.07985 105.96857 36921 ft 453 kts 139°
2026-04-25 04:06 -4.12833 106.00911 36919 ft 453 kts 139°
2026-04-25 04:06 -4.17683 106.04968 36926 ft 454 kts 139°
2026-04-25 04:07 -4.22528 106.09022 36920 ft 454 kts 139°
2026-04-25 04:07 -4.27377 106.13080 36929 ft 454 kts 139°
2026-04-25 04:08 -4.32222 106.17135 36915 ft 454 kts 139°
2026-04-25 04:08 -4.37069 106.21186 36928 ft 454 kts 139°
2026-04-25 04:09 -4.41911 106.25239 36928 ft 453 kts 139°
2026-04-25 04:09 -4.46721 106.29267 36922 ft 453 kts 139°
2026-04-25 04:10 -4.51557 106.33317 36915 ft 453 kts 139°
2026-04-25 04:10 -4.56392 106.37366 36920 ft 453 kts 139°
2026-04-25 04:11 -4.63631 106.43433 36852 ft 450 kts 139°
2026-04-25 04:11 -4.66031 106.45444 36440 ft 450 kts 139°
2026-04-25 04:12 -4.68436 106.47459 35728 ft 452 kts 139°
2026-04-25 04:12 -4.70868 106.49498 34761 ft 457 kts 139°
2026-04-25 04:12 -4.73313 106.51548 33600 ft 460 kts 139°
2026-04-25 04:12 -4.75776 106.53613 32403 ft 462 kts 139°
2026-04-25 04:13 -4.78246 106.55688 31169 ft 464 kts 140°
2026-04-25 04:13 -4.80726 106.57770 29927 ft 465 kts 140°
2026-04-25 04:13 -4.83180 106.59827 28614 ft 466 kts 140°
2026-04-25 04:13 -4.85802 106.61764 27314 ft 467 kts 147°
2026-04-25 04:14 -4.88539 106.63340 27197 ft 442 kts 152°
2026-04-25 04:14 -4.91271 106.64634 26969 ft 431 kts 154°
2026-04-25 04:14 -4.94000 106.65884 26119 ft 433 kts 154°
2026-04-25 04:14 -4.96726 106.67139 25947 ft 433 kts 154°
2026-04-25 04:15 -4.99487 106.68408 25649 ft 438 kts 154°
2026-04-25 04:15 -5.02255 106.69677 25228 ft 436 kts 154°
2026-04-25 04:15 -5.05019 106.70940 25128 ft 438 kts 154°
2026-04-25 04:15 -5.07754 106.72181 25016 ft 431 kts 154°
2026-04-25 04:16 -5.10451 106.73412 24919 ft 422 kts 154°
2026-04-25 04:16 -5.13099 106.74624 24914 ft 417 kts 154°
2026-04-25 04:16 -5.15734 106.75841 24907 ft 420 kts 154°
2026-04-25 04:16 -5.18407 106.77071 24914 ft 422 kts 154°
2026-04-25 04:17 -5.21082 106.78279 24911 ft 420 kts 154°
2026-04-25 04:17 -5.23749 106.79483 24849 ft 422 kts 154°
2026-04-25 04:17 -5.26412 106.80682 24513 ft 416 kts 154°
2026-04-25 04:17 -5.29035 106.81865 24081 ft 409 kts 154°
2026-04-25 04:18 -5.31560 106.82989 23656 ft 393 kts 154°
2026-04-25 04:18 -5.34036 106.84104 23252 ft 389 kts 154°
2026-04-25 04:18 -5.36504 106.85231 22828 ft 390 kts 154°
2026-04-25 04:18 -5.38170 106.85995 22539 ft 388 kts 154°
2026-04-25 04:19 -5.41407 106.87473 21977 ft 382 kts 154°
2026-04-25 04:19 -5.43004 106.88199 21694 ft 379 kts 154°
2026-04-25 04:19 -5.45443 106.89195 21263 ft 379 kts 163°
2026-04-25 04:19 -5.48052 106.89466 21111 ft 378 kts 182°
2026-04-25 04:20 -5.50643 106.88920 20858 ft 385 kts 199°
2026-04-25 04:20 -5.53166 106.87976 20384 ft 387 kts 200°
2026-04-25 04:20 -5.55674 106.86996 19843 ft 386 kts 200°
2026-04-25 04:20 -5.58170 106.86015 19290 ft 384 kts 200°
2026-04-25 04:21 -5.60661 106.85042 18743 ft 383 kts 200°
2026-04-25 04:21 -5.63143 106.84078 18197 ft 382 kts 200°
2026-04-25 04:21 -5.65617 106.83121 17637 ft 380 kts 200°
2026-04-25 04:21 -5.68074 106.82173 17078 ft 375 kts 200°
2026-04-25 04:22 -5.70451 106.81256 16537 ft 366 kts 200°
2026-04-25 04:22 -5.72807 106.80347 15986 ft 358 kts 200°
2026-04-25 04:22 -5.75115 106.79457 15462 ft 354 kts 200°
2026-04-25 04:22 -5.77417 106.78570 14933 ft 354 kts 200°
2026-04-25 04:23 -5.79720 106.77682 14381 ft 354 kts 200°
2026-04-25 04:23 -5.82024 106.76794 13831 ft 354 kts 200°
2026-04-25 04:23 -5.84310 106.75903 13299 ft 348 kts 203°
2026-04-25 04:23 -5.86292 106.74599 12902 ft 337 kts 225°
2026-04-25 04:24 -5.87600 106.72706 12476 ft 326 kts 247°
2026-04-25 04:24 -5.88438 106.70627 12048 ft 316 kts 248°
2026-04-25 04:24 -5.89236 106.68611 11636 ft 320 kts 248°
2026-04-25 04:24 -5.90106 106.66417 11227 ft 353 kts 248°
2026-04-25 04:25 -5.91016 106.64129 10799 ft 348 kts 248°
2026-04-25 04:25 -5.91900 106.61910 10373 ft 336 kts 248°
2026-04-25 04:25 -5.92747 106.59791 10211 ft 316 kts 248°
2026-04-25 04:25 -5.93542 106.57798 10110 ft 297 kts 248°
2026-04-25 04:26 -5.94318 106.55880 9901 ft 296 kts 248°
2026-04-25 04:26 -5.95088 106.53997 9614 ft 285 kts 247°
2026-04-25 04:26 -5.95829 106.52191 9355 ft 273 kts 247°
2026-04-25 04:26 -5.96526 106.50488 9089 ft 260 kts 247°
2026-04-25 04:27 -5.97207 106.48822 8822 ft 260 kts 247°
2026-04-25 04:27 -5.97895 106.47136 8544 ft 260 kts 247°
2026-04-25 04:27 -5.98577 106.45461 8282 ft 257 kts 247°
2026-04-25 04:27 -5.99256 106.43798 8018 ft 256 kts 247°
2026-04-25 04:28 -5.99934 106.42138 7757 ft 258 kts 247°
2026-04-25 04:28 -6.00610 106.40477 7476 ft 256 kts 247°
2026-04-25 04:28 -6.01271 106.38859 7221 ft 251 kts 247°
2026-04-25 04:28 -6.01935 106.37229 7079 ft 252 kts 247°
2026-04-25 04:29 -6.02601 106.35594 7013 ft 253 kts 247°
2026-04-25 04:29 -6.03268 106.33949 6999 ft 254 kts 247°
2026-04-25 04:29 -6.04176 106.32458 7015 ft 249 kts 221°
2026-04-25 04:29 -6.05602 106.31621 6927 ft 230 kts 190°
2026-04-25 04:30 -6.07114 106.31627 6819 ft 212 kts 166°
2026-04-25 04:30 -6.08593 106.31942 6575 ft 219 kts 163°
2026-04-25 04:30 -6.10061 106.32269 6312 ft 214 kts 164°
2026-04-25 04:30 -6.11517 106.32573 6060 ft 213 kts 165°
2026-04-25 04:31 -6.12952 106.32851 5804 ft 213 kts 166°
2026-04-25 04:31 -6.14412 106.33118 5528 ft 213 kts 166°
2026-04-25 04:31 -6.15858 106.33372 5268 ft 207 kts 167°
2026-04-25 04:31 -6.17237 106.33612 5075 ft 192 kts 167°
2026-04-25 04:32 -6.18477 106.33824 5022 ft 169 kts 166°
2026-04-25 04:32 -6.19565 106.34011 4989 ft 148 kts 165°
2026-04-25 04:32 -6.20522 106.34331 4795 ft 144 kts 139°
2026-04-25 04:32 -6.21107 106.35109 4509 ft 139 kts 117°
2026-04-25 04:33 -6.21606 106.35946 4195 ft 141 kts 118°
2026-04-25 04:33 -6.22105 106.36759 4054 ft 135 kts 118°
2026-04-25 04:33 -6.22602 106.37559 4008 ft 136 kts 119°
2026-04-25 04:33 -6.23104 106.38363 4008 ft 136 kts 119°
2026-04-25 04:34 -6.23556 106.39196 4007 ft 135 kts 107°
2026-04-25 04:34 -6.23666 106.40128 4016 ft 136 kts 85°
2026-04-25 04:34 -6.23469 106.41051 4017 ft 134 kts 73°
2026-04-25 04:34 -6.23150 106.41932 4016 ft 134 kts 70°
2026-04-25 04:35 -6.22806 106.42806 4018 ft 135 kts 70°
2026-04-25 04:35 -6.22460 106.43676 4008 ft 134 kts 69°
2026-04-25 04:35 -6.22116 106.44544 3999 ft 136 kts 69°
2026-04-25 04:35 -6.21768 106.45422 3926 ft 135 kts 69°
2026-04-25 04:36 -6.21418 106.46307 3759 ft 137 kts 70°
2026-04-25 04:36 -6.21071 106.47180 3582 ft 134 kts 70°
2026-04-25 04:36 -6.20724 106.48056 3412 ft 134 kts 70°
2026-04-25 04:36 -6.20379 106.48924 3241 ft 135 kts 70°
2026-04-25 04:37 -6.20034 106.49799 3056 ft 134 kts 70°
2026-04-25 04:37 -6.19688 106.50674 2884 ft 134 kts 69°
2026-04-25 04:37 -6.19346 106.51535 2708 ft 133 kts 70°
2026-04-25 04:37 -6.19001 106.52403 2529 ft 135 kts 69°
2026-04-25 04:38 -6.18655 106.53265 2355 ft 133 kts 69°
2026-04-25 04:38 -6.18309 106.54126 2171 ft 133 kts 69°
2026-04-25 04:38 -6.17969 106.55004 1997 ft 134 kts 68°
2026-04-25 04:38 -6.17626 106.55869 1816 ft 133 kts 68°
2026-04-25 04:39 -6.17286 106.56735 1643 ft 133 kts 67°
2026-04-25 04:39 -6.16943 106.57598 1465 ft 133 kts 67°
2026-04-25 04:39 -6.16604 106.58448 1292 ft 132 kts 66°
2026-04-25 04:39 -6.16262 106.59311 1107 ft 133 kts 66°
2026-04-25 04:40 -6.15918 106.60175 936 ft 133 kts 66°
2026-04-25 04:40 -6.15577 106.61039 757 ft 133 kts 66°
2026-04-25 04:40 -6.15235 106.61900 587 ft 133 kts 66°
2026-04-25 04:40 -6.14892 106.62766 404 ft 133 kts 66°
2026-04-25 04:41 -6.14548 106.63625 256 ft 133 kts 66°
2026-04-25 04:41 -6.14199 106.64489 62 ft 134 kts 66°
2026-04-25 04:41 -6.13870 106.65307 37 ft 110 kts 68°
2026-04-25 04:41 -6.13689 106.65758 37 ft 58 kts 68°
2026-04-25 04:42 -6.13540 106.66120 36 ft 51 kts 59°
2026-04-25 04:42 -6.13376 106.66284 37 ft 16 kts 35°
2026-04-25 04:42 -6.13290 106.66279 36 ft 7 kts 338°
2026-04-25 04:42 -6.13288 106.66278 36 ft 0 kts 338°
2026-04-25 04:43 -6.13271 106.66272 38 ft 10 kts 339°
2026-04-25 04:44 -6.13230 106.66178 37 ft 25 kts 249°
2026-04-25 04:44 -6.13286 106.66040 36 ft 11 kts 248°
2026-04-25 04:44 -6.13323 106.65947 37 ft 17 kts 248°
2026-04-25 04:44 -6.13370 106.65827 35 ft 20 kts 248°
2026-04-25 04:45 -6.13426 106.65689 37 ft 20 kts 248°
2026-04-25 04:45 -6.13415 106.65619 37 ft 7 kts 334°
2026-04-25 04:45 -6.13369 106.65576 37 ft 12 kts 310°
2026-04-25 04:45 -6.13301 106.65490 37 ft 16 kts 309°
2026-04-25 04:46 -6.13273 106.65395 37 ft 12 kts 261°
2026-04-25 04:46 -6.13252 106.65347 35 ft 6 kts 323°
2026-04-25 04:46 -6.13226 106.65328 37 ft 2 kts 324°
2026-04-25 04:46 -6.13224 106.65326 34 ft 0 kts 324°